• In Belarus
  • List of Countries
  • For 7 days
  • Water Temperature
  • Satellite Maps
  • Weather Map
  • Weather Widgets
  • user-avatar
    Login

    Hourly Weather Neuquén

    Today, 18 December, Monday

    Time Temperature Precipitation Wind Pressure Humidity
    00:00 +20°C° 0 mm 5 mps 735 mmHg 13%
    01:00 +19°C° 0 mm 5 mps 734 mmHg 14%
    02:00 +19°C° 0 mm 5 mps 734 mmHg 16%
    03:00 +17°C° 0 mm 5 mps 734 mmHg 17%
    04:00 +17°C° 0 mm 5 mps 733 mmHg 18%
    05:00 +19°C° 0 mm 5 mps 733 mmHg 18%
    06:00 +21°C° 0 mm 6 mps 733 mmHg 18%
    07:00 +22°C° 0 mm 7 mps 733 mmHg 17%
    08:00 +24°C° 0 mm 7 mps 733 mmHg 16%
    09:00 +27°C° 0 mm 7 mps 733 mmHg 15%
    10:00 +29°C° 0 mm 7 mps 733 mmHg 14%
    11:00 +30°C° 0 mm 6 mps 732 mmHg 13%
    12:00 +33°C° 0 mm 6 mps 732 mmHg 12%
    13:00 +34°C° 0 mm 6 mps 731 mmHg 11%
    14:00 +34°C° 0 mm 5 mps 731 mmHg 10%
    15:00 +35°C° 0 mm 4 mps 730 mmHg 9%
    16:00 +35°C° 0 mm 3 mps 730 mmHg 9%
    17:00 +34°C° 0 mm 3 mps 730 mmHg 9%
    18:00 +33°C° 0 mm 3 mps 730 mmHg 10%
    19:00 +31°C° 0 mm 2 mps 730 mmHg 11%
    20:00 +31°C° 0 mm 3 mps 731 mmHg 12%
    21:00 +30°C° 0 mm 3 mps 731 mmHg 13%
    22:00 +29°C° 0 mm 3 mps 732 mmHg 15%
    23:00 +28°C° 0 mm 4 mps 731 mmHg 18%

    Tomorrow, 19 December, Tuesday

    Time Temperature Precipitation Wind Pressure Humidity
    00:00 +27°C° 0 mm 4 mps 731 mmHg 22%
    01:00 +26°C° 0 mm 4 mps 731 mmHg 25%
    02:00 +25°C° 0 mm 4 mps 731 mmHg 27%
    03:00 +25°C° 0 mm 3 mps 731 mmHg 29%
    04:00 +24°C° 0 mm 3 mps 732 mmHg 31%
    05:00 +25°C° 0 mm 3 mps 732 mmHg 28%
    06:00 +27°C° 0 mm 3 mps 732 mmHg 26%
    07:00 +28°C° 0 mm 3 mps 733 mmHg 23%
    08:00 +30°C° 0 mm 3 mps 732 mmHg 21%
    09:00 +31°C° 0 mm 3 mps 732 mmHg 18%
    10:00 +34°C° 0 mm 3 mps 732 mmHg 15%
    11:00 +35°C° 0 mm 3 mps 731 mmHg 13%
    12:00 +36°C° 0 mm 3 mps 730 mmHg 11%
    13:00 +37°C° 0 mm 4 mps 730 mmHg 9%
    14:00 +38°C° 0 mm 4 mps 729 mmHg 8%
    15:00 +38°C° 0 mm 4 mps 729 mmHg 8%
    16:00 +40°C° 0 mm 4 mps 728 mmHg 7%
    17:00 +38°C° 0 mm 4 mps 728 mmHg 8%
    18:00 +37°C° 0 mm 3 mps 728 mmHg 8%
    19:00 +36°C° 0 mm 3 mps 728 mmHg 9%
    20:00 +34°C° 0 mm 5 mps 729 mmHg 11%
    21:00 +33°C° 0 mm 7 mps 729 mmHg 13%
    22:00 +32°C° 0 mm 9 mps 729 mmHg 16%
    23:00 +29°C° 0 mm 9 mps 729 mmHg 19%

    Day after tomorrow, 20 December, Wednesday

    Time Temperature Precipitation Wind Pressure Humidity
    00:00 +28°C° 0 mm 9 mps 729 mmHg 22%
    01:00 +27°C° 0 mm 8 mps 729 mmHg 25%
    02:00 +26°C° 0 mm 7 mps 729 mmHg 27%
    03:00 +24°C° 0 mm 6 mps 729 mmHg 29%
    04:00 +23°C° 0 mm 5 mps 729 mmHg 31%
    05:00 +24°C° 0 mm 6 mps 729 mmHg 29%
    06:00 +26°C° 0 mm 7 mps 729 mmHg 26%
    07:00 +27°C° 0 mm 7 mps 729 mmHg 24%
    08:00 +29°C° 0 mm 8 mps 729 mmHg 20%
    09:00 +32°C° 0 mm 8 mps 729 mmHg 17%
    10:00 +34°C° 0 mm 8 mps 729 mmHg 13%
    11:00 +35°C° 0 mm 9 mps 729 mmHg 13%
    12:00 +38°C° 0 mm 10 mps 728 mmHg 12%
    13:00 +39°C° 0 mm 11 mps 728 mmHg 12%
    14:00 +38°C° 0 mm 12 mps 727 mmHg 13%
    15:00 +38°C° 0 mm 13 mps 727 mmHg 15%
    16:00 +37°C° 0 mm 14 mps 727 mmHg 16%
    17:00 +34°C° 0 mm 14 mps 727 mmHg 19%
    18:00 +32°C° 0 mm 13 mps 728 mmHg 21%
    19:00 +29°C° 0 mm 13 mps 728 mmHg 24%
    20:00 +27°C° 0 mm 12 mps 729 mmHg 25%
    21:00 +26°C° 0 mm 11 mps 729 mmHg 26%
    22:00 +23°C° 0 mm 11 mps 730 mmHg 28%
    23:00 +22°C° 0 mm 10 mps 730 mmHg 29%

    21 December, Thursday

    Time Temperature Precipitation Wind Pressure Humidity
    00:00 +21°C° 0 mm 8 mps 730 mmHg 30%
    01:00 +20°C° 0 mm 7 mps 730 mmHg 31%
    02:00 +18°C° 0 mm 7 mps 731 mmHg 31%
    03:00 +19°C° 0 mm 6 mps 731 mmHg 32%
    04:00 +17°C° 0 mm 5 mps 731 mmHg 33%
    05:00 +19°C° 0 mm 4 mps 732 mmHg 29%
    06:00 +20°C° 0 mm 3 mps 732 mmHg 25%
    07:00 +21°C° 0 mm 2 mps 732 mmHg 22%
    08:00 +23°C° 0 mm 2 mps 731 mmHg 21%
    09:00 +25°C° 0 mm 2 mps 731 mmHg 20%
    10:00 +26°C° 0 mm 2 mps 730 mmHg 19%
    11:00 +28°C° 0 mm 3 mps 730 mmHg 18%
    12:00 +29°C° 0 mm 4 mps 729 mmHg 17%
    13:00 +32°C° 0 mm 5 mps 728 mmHg 16%
    14:00 +33°C° 0 mm 5 mps 727 mmHg 15%
    15:00 +34°C° 0 mm 5 mps 726 mmHg 13%
    16:00 +36°C° 0 mm 6 mps 726 mmHg 12%
    17:00 +34°C° 0 mm 8 mps 726 mmHg 11%
    18:00 +32°C° 0 mm 10 mps 726 mmHg 11%
    19:00 +31°C° 0 mm 12 mps 727 mmHg 11%
    20:00 +28°C° 0 mm 12 mps 727 mmHg 16%
    21:00 +26°C° 0 mm 12 mps 728 mmHg 21%
    22:00 +22°C° 0 mm 12 mps 729 mmHg 26%
    23:00 +21°C° 0 mm 12 mps 729 mmHg 29%

    22 December, Friday

    Time Temperature Precipitation Wind Pressure Humidity
    00:00 +19°C° 0 mm 12 mps 729 mmHg 32%
    01:00 +17°C° 0 mm 12 mps 729 mmHg 35%
    02:00 +17°C° 0 mm 11 mps 729 mmHg 37%
    03:00 +16°C° 0 mm 11 mps 729 mmHg 39%
    04:00 +14°C° 0 mm 11 mps 729 mmHg 40%
    05:00 +16°C° 0 mm 11 mps 730 mmHg 38%
    06:00 +17°C° 0 mm 11 mps 730 mmHg 35%
    07:00 +18°C° 0 mm 11 mps 731 mmHg 33%
    08:00 +19°C° 0 mm 11 mps 731 mmHg 28%
    09:00 +22°C° 0 mm 12 mps 731 mmHg 24%
    10:00 +23°C° 0 mm 12 mps 730 mmHg 19%
    11:00 +24°C° 0 mm 12 mps 730 mmHg 17%
    12:00 +26°C° 0 mm 13 mps 730 mmHg 15%
    13:00 +27°C° 0 mm 14 mps 730 mmHg 12%
    14:00 +26°C° 0 mm 14 mps 730 mmHg 13%
    15:00 +26°C° 0 mm 14 mps 730 mmHg 13%
    16:00 +24°C° 0 mm 13 mps 730 mmHg 14%
    17:00 +23°C° 0 mm 12 mps 731 mmHg 15%
    18:00 +22°C° 0 mm 11 mps 731 mmHg 17%
    19:00 +21°C° 0 mm 10 mps 732 mmHg 18%
    20:00 +19°C° 0 mm 10 mps 732 mmHg 20%
    21:00 +18°C° 0 mm 9 mps 733 mmHg 22%
    22:00 +17°C° 0 mm 9 mps 734 mmHg 24%
    23:00 +17°C° 0 mm 8 mps 734 mmHg 26%

    23 December, Saturday

    Time Temperature Precipitation Wind Pressure Humidity
    00:00 +16°C° 0 mm 8 mps 734 mmHg 28%
    01:00 +15°C° 0 mm 8 mps 734 mmHg 30%
    02:00 +14°C° 0 mm 7 mps 735 mmHg 32%
    03:00 +14°C° 0 mm 7 mps 735 mmHg 33%
    04:00 +13°C° 0 mm 6 mps 735 mmHg 34%
    05:00 +14°C° 0 mm 6 mps 735 mmHg 32%
    06:00 +15°C° 0 mm 5 mps 736 mmHg 29%
    07:00 +17°C° 0 mm 4 mps 736 mmHg 26%
    08:00 +18°C° 0 mm 3 mps 735 mmHg 23%
    09:00 +20°C° 0 mm 2 mps 735 mmHg 21%
    10:00 +22°C° 0 mm 1 mps 735 mmHg 18%
    11:00 +23°C° 0 mm 1 mps 734 mmHg 16%
    12:00 +24°C° 0 mm 2 mps 733 mmHg 15%
    13:00 +25°C° 0 mm 2 mps 732 mmHg 13%
    14:00 +26°C° 0 mm 2 mps 732 mmHg 12%
    15:00 +26°C° 0 mm 2 mps 731 mmHg 12%
    16:00 +27°C° 0 mm 2 mps 730 mmHg 11%
    17:00 +27°C° 0 mm 2 mps 730 mmHg 12%
    18:00 +27°C° 0 mm 2 mps 730 mmHg 12%
    19:00 +27°C° 0 mm 2 mps 730 mmHg 12%
    20:00 +26°C° 0 mm 3 mps 730 mmHg 13%
    21:00 +25°C° 0 mm 3 mps 731 mmHg 13%
    22:00 +25°C° 0 mm 3 mps 731 mmHg 14%
    23:00 +23°C° 0 mm 4 mps 730 mmHg 15%
    Show more

    XHprof extension not loaded